Regional Weather Roundup
Issued by NWS

Home | Current Version | Previous Version | Text Only | Print | Product List | Glossary Off
Versions: 1 2 3 4 5 6 7 8 9 10 11 12 13 14 15 16 17 18 19 20 21 22 23 24 25 26 27 28 29 30 31 32 33 34 35 36 37 38 39 40 41 42 43 44 45 46 47 48 49 50

000
ASUS45 KPSR 180500
RWRAZ

PRELIMINARY ARIZONA REGIONAL HOURLY WEATHER ROUNDUP
NATIONAL WEATHER SERVICE PHOENIX AZ
1000 PM MST WED DEC 17 2014

NOTE: FAIR INDICATES FEW OR NO CLOUDS BELOW 12,000 FEET WITH NO
SIGNIFICANT WEATHER AND/OR OBSTRUCTIONS TO VISIBILITY.

AZZ001>003-036-180600-
NORTHWEST ARIZONA

CITY           SKY/WX    TMP DP  RH WIND       PRES   REMARKS
KINGMAN        PTCLDY    37  35  92 E5        30.10R WCI  33
$$

AZZ004>008-015-016-018-180600-
NORTH CENTRAL ARIZONA

CITY           SKY/WX    TMP DP  RH WIND       PRES   REMARKS
GRAND CANYON   CLOUDY    31  31 100 SW3       30.10R
PRESCOTT       CLOUDY    38  32  79 S5        30.11S WCI  34
FLAGSTAFF      CLOUDY    31  29  92 S3        30.10R
PAYSON         FOG       34  34 100 E5        30.15R VSB 1/4 WCI  30
PAGE           MOCLDY    37  32  82 SW6       30.08R HAZE    WCI  32
$$

AZZ009>014-017-180600-
NORTHEAST ARIZONA

CITY           SKY/WX    TMP DP  RH WIND       PRES   REMARKS
WINSLOW        NOT AVBL
SAINT JOHNS    PTCLDY    33  29  85 SW6       30.11R WCI  28
WINDOW ROCK    PTCLDY    30  26  85 N3        30.10R
SHOW LOW       PTCLDY    30  28  93 S9        30.14R WCI  22
$$

AZZ023-180600-
GREATER PHOENIX AREA

CITY           SKY/WX    TMP DP  RH WIND       PRES   REMARKS
PHOENIX        MOCLDY    55  46  71 E7        30.11R
LUKE AFB       PTCLDY    49  49 100 NW6       30.12R
DEER VALLEY    PTCLDY    51  43  74 E6        30.12R
SCOTTSDALE     MOCLDY    50  46  86 CALM      30.13R
$$

AZZ027-028-180600-
SOUTHWEST MARICOPA COUNTY AND PINAL COUNTY

CITY           SKY/WX    TMP DP  RH WIND       PRES   REMARKS
CASA GRANDE    CLOUDY    52  48  87 CALM      30.14R
GILA BEND      PTCLDY    51  49  94 SE5       30.13R
$$

AZZ503-504-507>509-180600-
SOUTHEAST ARIZONA

CITY           SKY/WX    TMP DP  RH WIND       PRES   REMARKS
TUCSON         CLOUDY    50  47  89 SE5       30.17R
DAVIS-MONTHAN  MOCLDY    49  49  99 SE6       30.14R
NOGALES        CLOUDY    48  42  80 CALM      30.15R
SIERRA VISTA   PTCLDY    45  39  81 CALM      30.15R
SAFFORD        LGT RAIN  46  44  93 CALM      30.15R
$$

AZZ020-021-025-026-031-180600-
SOUTHWEST ARIZONA

CITY           SKY/WX    TMP DP  RH WIND       PRES   REMARKS
YUMA           CLEAR    N/A N/A N/A CALM      30.11R
$$

CAZ031-033-041-043-047-048-061-180600-
SOUTHERN CALIFORNIA

CITY           SKY/WX    TMP DP  RH WIND       PRES   REMARKS
DOWNTOWN L.A.  PTCLDY    54  45  71 CALM      30.10R
L.A. AIRPORT   PTCLDY    59  43  55 CALM      30.10R
SAN DIEGO      MOCLDY    59  45  59 CALM      30.13S
BURBANK        PTCLDY    53  44  71 SW3       30.09R
ONTARIO        MOCLDY    54  44  69 CALM      30.10R
RIVERSIDE      CLOUDY    54  46  74 S3        30.10R
PALM SPRINGS   MOCLDY    56  49  77 NW3       30.11S
EL CENTRO NAS  CLOUDY    53  51  93 SE3       30.09S FOG
IMPERIAL       CLOUDY    55  51  86 SE3       30.09S
BLYTHE         CLOUDY    53  50  89 E3        30.10R
NEEDLES        CLOUDY    54  48  80 N3        30.11R
$$

NVZ020-UTZ003-180600-
SOUTHERN NEVADA-UTAH

CITY           SKY/WX    TMP DP  RH WIND       PRES   REMARKS
LAS VEGAS      NOT AVBL
SALT LAKE CITY MOCLDY    34  31  88 CALM      30.06R
$$

NMZ009-TXZ055-180600-
NEW MEXICO-WEST TEXAS

CITY           SKY/WX    TMP DP  RH WIND       PRES   REMARKS
ALBUQUERQUE    MOCLDY    36  33  89 S6        30.10R WCI  31
EL PASO        PTCLDY    47  35  63 E5        30.13R
$$


........................KEY........................
SKY/WX - SKY CONDITION/WEATHER
TMP    - TEMPERATURE IN FAHRENHEIT
DP     - DEW POINT IN FAHRENHEIT
RH     - RELATIVE HUMIDITY IN PERCENT
WIND   - DIRECTION AND SPEED IN MILES PER HOUR (MPH)
VRB    - VARIABLE WIND DIRECTION
PRES   - MEAN SEA LEVEL PRESSURE IN INCHES OF MERCURY
         F - FALLING PRESSURE   R - RISING PRESSURE
         S - STEADY PRESSURE
VSB    - VISIBILITY IN MILES
HX     - HEAT INDEX IN FAHRENHEIT
WCI    - WIND CHILL INDEX IN FAHRENHEIT
TC     - TEMPERATURE IN CELSIUS WHICH IS ALSO KNOWN AS
         TEMPERATURE IN CENTIGRADE
AFB    - AIR FORCE BASE
         LUKE AFB IS LUKE AIR FORCE BASE
         DAVIS-MONTHAN IS DAVIS-MONTHAN AIR FORCE BASE
NAS    - NAVAL AIR STATION
         EL CENTRO NAS IS EL CENTRO NAVAL AIR STATION
N/A    - NOT AVAILABLE


USA.gov is the U.S. government's official web portal to all federal, state and local government web resources and services.